TUI996 ENBR-EBBR

Flight info

Callsign TUI996
Flight time N/A
Altitude 37000
Route ENBR/35 TUXIL4D TUXIL ZOL SUTEB SUSET Z310 WOODY WOODY4B EBBR/07L
Aircraft B738/H-L/C

Departure

Time 2026-04-29 18:48
Airport Bergen Airport, Flesland (ENBR)

Arrival

Time N/A
Airport Brussels Airport (EBBR)
Time Latitude Longitude Altitude Speed Heading
2026-04-29 17:51 60.28897 5.22550 175 ft 0 kts 83°
2026-04-29 18:33 60.28896 5.22535 174 ft 2 kts 83°
2026-04-29 18:33 60.28894 5.22505 174 ft 2 kts 83°
2026-04-29 18:33 60.28892 5.22475 174 ft 2 kts 83°
2026-04-29 18:34 60.28891 5.22454 174 ft 2 kts 95°
2026-04-29 18:34 60.28894 5.22435 174 ft 2 kts 116°
2026-04-29 18:34 60.28907 5.22405 174 ft 2 kts 150°
2026-04-29 18:34 60.28918 5.22396 174 ft 1 kts 174°
2026-04-29 18:35 60.28923 5.22395 174 ft 0 kts 171°
2026-04-29 18:39 60.28922 5.22396 174 ft 0 kts 171°
2026-04-29 18:40 60.28901 5.22403 174 ft 3 kts 167°
2026-04-29 18:40 60.28880 5.22411 174 ft 5 kts 170°
2026-04-29 18:40 60.28837 5.22425 174 ft 6 kts 178°
2026-04-29 18:40 60.28790 5.22337 174 ft 8 kts 199°
2026-04-29 18:41 60.28551 5.22399 174 ft 14 kts 169°
2026-04-29 18:41 60.28481 5.22424 174 ft 15 kts 170°
2026-04-29 18:42 60.28401 5.22450 174 ft 9 kts 170°
2026-04-29 18:42 60.28331 5.22474 174 ft 11 kts 170°
2026-04-29 18:42 60.28297 5.22486 174 ft 6 kts 170°
2026-04-29 18:42 60.28246 5.22503 174 ft 8 kts 170°
2026-04-29 18:43 60.28216 5.22514 174 ft 0 kts 170°
2026-04-29 18:43 60.28203 5.22518 174 ft 3 kts 170°
2026-04-29 18:43 60.28174 5.22528 174 ft 5 kts 170°
2026-04-29 18:43 60.28131 5.22539 174 ft 7 kts 178°
2026-04-29 18:44 60.28076 5.22517 174 ft 8 kts 217°
2026-04-29 18:44 60.28059 5.22443 174 ft 3 kts 257°
2026-04-29 18:44 60.28059 5.22442 174 ft 0 kts 257°
2026-04-29 18:45 60.28058 5.22430 174 ft 2 kts 261°
2026-04-29 18:45 60.28056 5.22406 174 ft 3 kts 257°
2026-04-29 18:45 60.28048 5.22332 174 ft 5 kts 264°
2026-04-29 18:45 60.28047 5.22283 174 ft 4 kts 279°
2026-04-29 18:46 60.28087 5.22238 174 ft 6 kts 348°
2026-04-29 18:46 60.28090 5.22237 174 ft 0 kts 348°
2026-04-29 18:46 60.28185 5.22203 174 ft 41 kts 351°
2026-04-29 18:47 60.28672 5.22040 174 ft 97 kts 350°
2026-04-29 18:47 60.29181 5.21868 174 ft 128 kts 351°
2026-04-29 18:47 60.30582 5.21403 343 ft 166 kts 348°
2026-04-29 18:47 60.31771 5.20966 654 ft 182 kts 347°
2026-04-29 18:48 60.33080 5.20456 1011 ft 199 kts 347°
2026-04-29 18:48 60.34473 5.19897 1412 ft 209 kts 348°
2026-04-29 18:48 60.35441 5.19602 1584 ft 222 kts 350°
2026-04-29 18:48 60.37592 5.18995 2057 ft 241 kts 349°
2026-04-29 18:49 60.38686 5.18652 2436 ft 243 kts 348°
2026-04-29 18:49 60.40359 5.18105 3010 ft 247 kts 347°
2026-04-29 18:49 60.42637 5.17345 3894 ft 251 kts 347°
2026-04-29 18:49 60.44344 5.16770 4538 ft 254 kts 346°
2026-04-29 18:50 60.45502 5.16378 4967 ft 256 kts 346°
2026-04-29 18:50 60.47707 5.14746 5774 ft 253 kts 315°
2026-04-29 18:50 60.48645 5.11918 6439 ft 246 kts 284°
2026-04-29 18:50 60.48797 5.09647 6903 ft 245 kts 267°
2026-04-29 18:51 60.48580 5.06251 7608 ft 245 kts 259°
2026-04-29 18:51 60.48283 5.02863 8241 ft 248 kts 258°
2026-04-29 18:51 60.47258 4.98717 9038 ft 255 kts 222°
2026-04-29 18:51 60.45647 4.97273 9747 ft 262 kts 189°
2026-04-29 18:52 60.43829 4.97592 10519 ft 265 kts 177°
2026-04-29 18:52 60.41996 4.98043 10874 ft 279 kts 179°
2026-04-29 18:52 60.40671 4.98307 10903 ft 295 kts 179°
2026-04-29 18:53 60.39965 4.98447 10929 ft 303 kts 179°
2026-04-29 18:53 60.31523 5.00196 13089 ft 324 kts 178°
2026-04-29 18:53 60.29266 5.00671 13731 ft 327 kts 178°
2026-04-29 18:54 60.27029 5.01215 14372 ft 330 kts 176°
2026-04-29 18:54 60.24741 5.02050 15021 ft 334 kts 173°
2026-04-29 18:54 60.22483 5.02981 15652 ft 337 kts 173°
2026-04-29 18:54 60.20187 5.03922 16279 ft 340 kts 174°
2026-04-29 18:55 60.17865 5.04897 16881 ft 344 kts 172°
2026-04-29 18:55 60.15559 5.06264 17465 ft 351 kts 166°
2026-04-29 18:55 60.13285 5.08064 18052 ft 355 kts 163°
2026-04-29 18:55 60.11013 5.09981 18604 ft 359 kts 163°
2026-04-29 18:56 60.08730 5.11929 19148 ft 362 kts 163°
2026-04-29 18:56 60.06398 5.13924 19686 ft 365 kts 163°
2026-04-29 18:56 60.04067 5.15919 20212 ft 368 kts 163°
2026-04-29 18:56 60.01712 5.17932 20723 ft 371 kts 163°
2026-04-29 18:57 59.99355 5.19945 21225 ft 373 kts 163°
2026-04-29 18:57 59.96966 5.21982 21708 ft 376 kts 163°
2026-04-29 18:57 59.94546 5.24041 22192 ft 379 kts 163°
2026-04-29 18:57 59.92134 5.26092 22650 ft 382 kts 163°
2026-04-29 18:58 59.89677 5.28177 23109 ft 384 kts 163°
2026-04-29 18:58 59.87225 5.30255 23566 ft 387 kts 163°
2026-04-29 18:58 59.84744 5.32352 24009 ft 389 kts 164°
2026-04-29 18:58 59.82236 5.34257 24444 ft 389 kts 167°
2026-04-29 18:59 59.79627 5.35769 24874 ft 387 kts 173°
2026-04-29 18:59 59.77010 5.36629 25292 ft 385 kts 179°
2026-04-29 18:59 59.74340 5.37167 25496 ft 390 kts 180°
2026-04-29 18:59 59.71627 5.37644 25469 ft 388 kts 180°
2026-04-29 19:00 59.68991 5.38101 25480 ft 382 kts 180°
2026-04-29 19:00 59.66363 5.38547 25481 ft 382 kts 180°
2026-04-29 19:00 59.63712 5.39027 25512 ft 387 kts 179°
2026-04-29 19:00 59.61027 5.39690 26030 ft 387 kts 178°
2026-04-29 19:01 59.58359 5.40390 26307 ft 392 kts 178°
2026-04-29 19:01 59.55654 5.41096 26737 ft 394 kts 178°
2026-04-29 19:01 59.52942 5.41798 27102 ft 396 kts 178°
2026-04-29 19:01 59.50198 5.42501 27468 ft 398 kts 178°
2026-04-29 19:02 59.47472 5.43196 27821 ft 400 kts 178°
2026-04-29 19:02 59.45634 5.43663 28055 ft 402 kts 178°
2026-04-29 19:02 59.41922 5.44601 28510 ft 405 kts 178°
2026-04-29 19:02 59.39138 5.45350 28837 ft 408 kts 176°
2026-04-29 19:03 59.36353 5.46326 29162 ft 412 kts 175°
2026-04-29 19:03 59.33548 5.47379 29472 ft 414 kts 175°
2026-04-29 19:03 59.30709 5.48441 29781 ft 416 kts 175°
2026-04-29 19:03 59.27882 5.49489 30076 ft 418 kts 175°
2026-04-29 19:04 59.25013 5.50546 30421 ft 418 kts 175°
2026-04-29 19:04 59.22186 5.51583 30805 ft 418 kts 175°
2026-04-29 19:04 59.19322 5.52629 31190 ft 417 kts 175°
2026-04-29 19:04 59.16481 5.53662 31578 ft 416 kts 175°
2026-04-29 19:05 59.13656 5.54686 31956 ft 415 kts 175°
2026-04-29 19:05 59.10836 5.55705 32327 ft 414 kts 176°
2026-04-29 19:05 59.08040 5.56712 32685 ft 413 kts 176°
2026-04-29 19:05 59.05221 5.57726 33039 ft 412 kts 176°
2026-04-29 19:06 59.02413 5.58733 33361 ft 412 kts 176°
2026-04-29 19:06 58.99589 5.59750 33600 ft 413 kts 176°
2026-04-29 19:06 58.93921 5.61782 34049 ft 417 kts 177°
2026-04-29 19:07 58.91103 5.62770 34246 ft 418 kts 179°
2026-04-29 19:07 58.89178 5.63262 34371 ft 416 kts 182°
2026-04-29 19:07 58.85366 5.63588 34722 ft 411 kts 187°
2026-04-29 19:07 58.82520 5.63543 35031 ft 409 kts 188°
2026-04-29 19:08 58.79695 5.63430 35326 ft 408 kts 189°
2026-04-29 19:08 58.76886 5.63289 35622 ft 408 kts 189°
2026-04-29 19:08 58.74060 5.63134 35912 ft 407 kts 189°
2026-04-29 19:08 58.71224 5.62971 36194 ft 407 kts 189°
2026-04-29 19:09 58.68401 5.62805 36449 ft 406 kts 189°
2026-04-29 19:09 58.65616 5.62637 36706 ft 406 kts 189°
2026-04-29 19:09 58.62797 5.62466 36962 ft 406 kts 189°
2026-04-29 19:09 58.59993 5.62294 37208 ft 406 kts 189°
2026-04-29 19:10 58.57174 5.62120 37433 ft 406 kts 189°
2026-04-29 19:10 58.51511 5.61768 37477 ft 407 kts 189°
2026-04-29 19:11 58.45926 5.61430 37479 ft 402 kts 189°
2026-04-29 19:11 58.40350 5.61084 37480 ft 402 kts 189°
2026-04-29 19:12 58.34739 5.60729 37483 ft 411 kts 189°
2026-04-29 19:12 58.28954 5.60365 37479 ft 421 kts 189°
2026-04-29 19:13 58.23090 5.60008 37477 ft 424 kts 189°
2026-04-29 19:13 58.17250 5.59660 37478 ft 421 kts 189°
2026-04-29 19:14 58.11415 5.59309 37479 ft 420 kts 189°
2026-04-29 19:14 58.05616 5.58957 37479 ft 421 kts 189°
2026-04-29 19:15 57.99778 5.58604 37479 ft 421 kts 189°
2026-04-29 19:15 57.93941 5.58253 37479 ft 421 kts 189°
2026-04-29 19:16 57.88052 5.57899 37479 ft 421 kts 189°
2026-04-29 19:16 57.82204 5.57549 37479 ft 421 kts 189°
2026-04-29 19:17 57.76334 5.57199 37479 ft 421 kts 189°
2026-04-29 19:17 57.70496 5.56852 37479 ft 421 kts 189°
2026-04-29 19:18 57.64665 5.56506 37479 ft 421 kts 189°
2026-04-29 19:18 57.58821 5.56160 37479 ft 421 kts 189°
2026-04-29 19:19 57.52988 5.55817 37479 ft 421 kts 189°
2026-04-29 19:19 57.47136 5.55473 37479 ft 421 kts 189°
2026-04-29 19:20 57.41298 5.55131 37479 ft 421 kts 189°
2026-04-29 19:20 57.35476 5.54792 37479 ft 421 kts 189°
2026-04-29 19:21 57.29655 5.54453 37479 ft 421 kts 189°
2026-04-29 19:21 57.23800 5.54114 37479 ft 421 kts 189°
2026-04-29 19:22 57.17992 5.53778 37479 ft 421 kts 189°
2026-04-29 19:22 57.12135 5.53441 37479 ft 421 kts 189°
2026-04-29 19:23 57.06301 5.53123 37479 ft 423 kts 190°
2026-04-29 19:23 57.00378 5.52800 37479 ft 428 kts 191°
2026-04-29 19:24 56.94369 5.52460 37480 ft 433 kts 192°
2026-04-29 19:24 56.88378 5.52100 37479 ft 434 kts 192°
2026-04-29 19:25 56.82391 5.51753 37478 ft 432 kts 192°
2026-04-29 19:25 56.76410 5.51409 37479 ft 432 kts 192°
2026-04-29 19:26 56.70401 5.51066 37479 ft 432 kts 192°
2026-04-29 19:26 56.64422 5.50728 37479 ft 432 kts 192°
2026-04-29 19:27 56.58452 5.50393 37479 ft 432 kts 192°
2026-04-29 19:27 56.52468 5.50059 37479 ft 432 kts 192°
2026-04-29 19:28 56.46483 5.49726 37479 ft 432 kts 192°
2026-04-29 19:28 56.40490 5.49394 37479 ft 432 kts 192°
2026-04-29 19:29 56.34495 5.49062 37479 ft 432 kts 192°
2026-04-29 19:29 56.28488 5.48732 37479 ft 432 kts 192°
2026-04-29 19:30 56.22504 5.48403 37479 ft 432 kts 192°
2026-04-29 19:30 56.16513 5.48075 37479 ft 432 kts 192°
2026-04-29 19:31 56.10535 5.47749 37479 ft 432 kts 192°
2026-04-29 19:31 56.04570 5.47424 37479 ft 432 kts 192°
2026-04-29 19:32 55.98556 5.47098 37479 ft 432 kts 192°
2026-04-29 19:32 55.92575 5.46775 37479 ft 432 kts 192°
2026-04-29 19:33 55.86586 5.46452 37479 ft 432 kts 192°
2026-04-29 19:33 55.80618 5.46131 37479 ft 432 kts 192°
2026-04-29 19:34 55.74601 5.45810 37479 ft 432 kts 192°
2026-04-29 19:34 55.68637 5.45491 37479 ft 432 kts 192°
2026-04-29 19:35 55.62632 5.45171 37479 ft 432 kts 192°
2026-04-29 19:35 55.56650 5.44854 37479 ft 432 kts 192°
2026-04-29 19:36 55.50682 5.44538 37478 ft 432 kts 192°
2026-04-29 19:36 55.44659 5.44220 37449 ft 433 kts 192°
2026-04-29 19:37 55.38706 5.43907 37419 ft 432 kts 192°
2026-04-29 19:37 55.32717 5.43594 37397 ft 432 kts 192°
2026-04-29 19:38 55.26718 5.43280 37398 ft 432 kts 192°
2026-04-29 19:38 55.20721 5.42967 37398 ft 432 kts 192°
2026-04-29 19:39 55.14741 5.42657 37398 ft 432 kts 192°
2026-04-29 19:39 55.08747 5.42346 37398 ft 432 kts 192°
2026-04-29 19:40 55.02782 5.42039 37398 ft 432 kts 192°
2026-04-29 19:40 54.96799 5.41637 37398 ft 432 kts 194°
2026-04-29 19:41 54.90778 5.40978 37398 ft 436 kts 195°
2026-04-29 19:41 54.85244 5.40369 37399 ft 439 kts 195°
2026-04-29 19:42 54.79164 5.39702 37397 ft 438 kts 195°
2026-04-29 19:42 54.73135 5.39053 37398 ft 437 kts 195°
2026-04-29 19:43 54.67107 5.38410 37398 ft 437 kts 195°
2026-04-29 19:43 54.61052 5.37768 37398 ft 438 kts 195°
2026-04-29 19:44 54.54983 5.37129 37398 ft 438 kts 195°
2026-04-29 19:44 54.48925 5.36495 37398 ft 438 kts 195°
2026-04-29 19:45 54.42877 5.35865 37398 ft 437 kts 195°
2026-04-29 19:45 54.36821 5.35235 37398 ft 437 kts 195°
2026-04-29 19:46 54.30794 5.34610 37398 ft 437 kts 195°
2026-04-29 19:46 54.24741 5.33985 37398 ft 437 kts 195°
2026-04-29 19:47 54.18665 5.33359 37400 ft 437 kts 195°
2026-04-29 19:47 54.12610 5.32737 37401 ft 437 kts 195°
2026-04-29 19:48 54.06591 5.32121 37403 ft 437 kts 195°
2026-04-29 19:48 54.00542 5.31503 37402 ft 438 kts 195°
2026-04-29 19:49 53.94452 5.30883 37401 ft 437 kts 195°
2026-04-29 19:49 53.88405 5.30269 37401 ft 438 kts 195°
2026-04-29 19:50 53.82367 5.29658 37400 ft 438 kts 195°
2026-04-29 19:50 53.76301 5.29046 37399 ft 437 kts 195°
2026-04-29 19:51 53.70240 5.28436 37399 ft 437 kts 195°
2026-04-29 19:51 53.64185 5.27829 37398 ft 437 kts 195°
2026-04-29 19:52 53.58146 5.27224 37398 ft 437 kts 195°
2026-04-29 19:52 53.52086 5.26620 37398 ft 437 kts 195°
2026-04-29 19:53 53.46018 5.26016 37398 ft 437 kts 195°
2026-04-29 19:53 53.39952 5.25415 37398 ft 437 kts 195°
2026-04-29 19:54 53.30887 5.24519 37398 ft 437 kts 195°
2026-04-29 19:54 53.24851 5.23924 37398 ft 437 kts 195°
2026-04-29 19:55 53.18790 5.23329 37398 ft 437 kts 195°
2026-04-29 19:55 53.12725 5.22735 37398 ft 437 kts 195°
2026-04-29 19:56 53.06670 5.22151 37398 ft 437 kts 195°
2026-04-29 19:56 53.00613 5.21572 37398 ft 436 kts 196°
2026-04-29 19:57 52.95620 5.21093 37398 ft 435 kts 197°
2026-04-29 19:57 52.88583 5.20403 37391 ft 434 kts 197°
2026-04-29 19:58 52.82556 5.19813 37385 ft 435 kts 197°
2026-04-29 19:58 52.76712 5.19247 37380 ft 435 kts 197°
2026-04-29 19:59 52.70721 5.18670 37381 ft 435 kts 197°
2026-04-29 19:59 52.64719 5.18094 37382 ft 435 kts 197°
2026-04-29 20:00 52.58925 5.17541 37376 ft 433 kts 197°
2026-04-29 20:00 52.55983 5.17274 37366 ft 422 kts 197°
2026-04-29 20:00 52.53159 5.17024 37368 ft 410 kts 197°
2026-04-29 20:01 52.47733 5.16509 37364 ft 406 kts 198°
2026-04-29 20:01 52.42361 5.15972 37359 ft 413 kts 197°